KB7YYZ Weather Reports


time (UTC)temp
C
wind
direction
speed
KPH
gust
KPH
rain 1hr
cm
rain 24hr
cm
rain mn
cm
humidity
%
barometer
mb
20260509131052 21 0.0 0.0 0.00 0.00 0.00 34 1007.1
20260509130028 21 0.0 0.0 0.00 0.00 0.00 34 1007.0
20260509125043 21 0.0 0.0 0.00 0.00 0.00 33 1006.8
20260509124019 21 0.0 0.0 0.00 0.00 0.00 33 1006.8
20260509123041 21 0.0 0.0 0.00 0.00 0.00 33 1006.7
20260509122021 21 0.0 0.0 0.00 0.00 0.00 32 1006.6
20260509121024 21 0.0 0.0 0.00 0.00 0.00 32 1006.5
20260509120040 21 0.0 0.0 0.00 0.00 0.00 31 1006.5
20260509115104 21 0.0 0.0 0.00 0.00 0.00 31 1006.5
20260509114033 22 0.0 0.0 0.00 0.00 0.00 31 1006.5
20260509113023 22 0.0 0.0 0.00 0.00 0.00 31 1006.5
20260509112029 22 0.0 0.0 0.00 0.00 0.00 31 1006.4
20260509111036 22 0.0 0.0 0.00 0.00 0.00 30 1006.4
20260509110032 22 0.0 0.0 0.00 0.00 0.00 29 1006.3
20260509105050 23 0.0 0.0 0.00 0.00 0.00 28 1006.1
20260509104020 23 0.0 0.0 0.00 0.00 0.00 28 1006.1
20260509103029 23 0.0 0.0 0.00 0.00 0.00 28 1006.1
20260509102026 23 0.0 0.0 0.00 0.00 0.00 28 1006.2
20260509101023 23 0.0 0.0 0.00 0.00 0.00 27 1006.1
20260509100020 23 158 0.0 0.0 0.00 0.00 0.00 27 1006.1
20260509095039 23 0.0 0.0 0.00 0.00 0.00 27 1006.0
20260509094023 24 0.0 0.0 0.00 0.00 0.00 27 1006.0
20260509093030 24 0.0 0.0 0.00 0.00 0.00 26 1006.1
20260509092024 24 0.0 0.0 0.00 0.00 0.00 25 1006.1
20260509091021 24 0.0 0.0 0.00 0.00 0.00 25 1006.1
20260509090036 24 0.0 0.0 0.00 0.00 0.00 25 1006.1
20260509085020 25 0.0 0.0 0.00 0.00 0.00 25 1006.1
20260509084029 25 0.0 0.0 0.00 0.00 0.00 24 1006.3
20260509083052 25 0.0 0.0 0.00 0.00 0.00 24 1006.1
20260509082043 25 0.0 0.0 0.00 0.00 0.00 24 1006.1
20260509081035 25 0.0 0.0 0.00 0.00 0.00 24 1006.1
20260509080039 25 0.0 0.0 0.00 0.00 0.00 23 1006.3
20260509075024 26 0.0 0.0 0.00 0.00 0.00 23 1006.3
20260509074029 26 0.0 0.0 0.00 0.00 0.00 23 1006.3
20260509073037 26 0.0 0.0 0.00 0.00 0.00 23 1006.3
20260509072031 26 0.0 0.0 0.00 0.00 0.00 22 1006.3
20260509071030 26 0.0 0.0 0.00 0.00 0.00 22 1006.3
20260509070020 26 29 0.0 0.0 0.00 0.00 0.00 22
20260509065107 27 281 1.6 1.6 0.00 0.00 0.00 22
20260509064023 27 248 0.0 0.0 0.00 0.00 0.00 21
20260509063024 27 33 0.0 0.0 0.00 0.00 0.00 21
20260509062021 27 32 0.0 1.6 0.00 0.00 0.00 21 1005.9
20260509061052 27 17 0.0 1.6 0.00 0.00 0.00 21 1005.9
20260509060024 27 43 0.0 1.6 0.00 0.00 0.00 21 1005.8
20260509055030 27 23 0.0 1.6 0.00 0.00 0.00 21 1005.7
20260509054025 27 26 0.0 0.0 0.00 0.00 0.00 20 1005.6
20260509053042 27 20 0.0 0.0 0.00 0.00 0.00 20 1005.7
20260509052050 28 359 0.0 0.0 0.00 0.00 0.00 20 1005.7
20260509051021 28 29 0.0 1.6 0.00 0.00 0.00 20 1005.7
20260509050026 28 24 0.0 0.0 0.00 0.00 0.00 20 1005.6
20260509045040 28 43 0.0 0.0 0.00 0.00 0.00 20 1005.5
20260509044035 28 0.0 0.0 0.00 0.00 0.00 20 1005.5
20260509043040 28 0.0 0.0 0.00 0.00 0.00 19 1005.4
20260509042026 29 0.0 0.0 0.00 0.00 0.00 19 1005.3
20260509041024 29 0.0 0.0 0.00 0.00 0.00 19 1005.2
20260509040030 30 0.0 0.0 0.00 0.00 0.00 19 1005.1
20260509035032 30 0.0 0.0 0.00 0.00 0.00 18 1005.0
20260509034030 30 0.0 0.0 0.00 0.00 0.00 20 1004.9
20260509033042 30 0.0 0.0 0.00 0.00 0.00 17 1004.8
20260509032021 30 0.0 0.0 0.00 0.00 0.00 16 1004.8
20260509031027 30 0.0 0.0 0.00 0.00 0.00 15 1004.6
20260509030042 31 23 0.0 0.0 0.00 0.00 0.00 14 1004.4
20260509025101 31 345 0.0 1.6 0.00 0.00 0.00 14 1004.4
20260509024022 31 342 0.0 1.6 0.00 0.00 0.00 14 1004.3
20260509023036 32 318 1.6 1.6 0.00 0.00 0.00 13 1004.1
20260509022025 32 315 1.6 1.6 0.00 0.00 0.00 13 1004.1
20260509021022 32 340 3.2 3.2 0.00 0.00 0.00 13 1004.0
20260509020058 32 323 1.6 3.2 0.00 0.00 0.00 13 1003.9
20260509014031 33 299 1.6 3.2 0.00 0.00 0.00 13 1003.7
20260509013021 33 302 3.2 3.2 0.00 0.00 0.00 13 1003.7
20260509012027 33 335 3.2 4.8 0.00 0.00 0.00 11 1003.7
20260509011034 -17 2 4.8 4.8 0.00 0.00 0.00 1003.7
20260509010043 34 11 3.2 4.8 0.00 0.00 0.00 12 1003.7
20260509005028 34 298 3.2 3.2 0.00 0.00 0.00 12 1003.7
20260509004037 34 277 4.8 4.8 0.00 0.00 0.00 12 1003.7
20260509003059 34 323 4.8 4.8 0.00 0.00 0.00 12 1003.7
20260509002033 35 304 3.2 3.2 0.00 0.00 0.00 12 1003.7
20260509001031 35 330 3.2 3.2 0.00 0.00 0.00 12 1003.8
20260509000026 35 275 4.8 4.8 0.00 0.00 0.00 12 1003.8
20260508235027 35 353 4.8 4.8 0.00 0.00 0.00 12 1003.8
20260508234021 35 305 3.2 4.8 0.00 0.00 0.00 12 1003.9
20260508233043 35 314 4.8 4.8 0.00 0.00 0.00 12 1004.1
20260508232021 35 320 3.2 4.8 0.00 0.00 0.00 12 1004.1
20260508231021 35 296 3.2 3.2 0.00 0.00 0.00 12 1004.2
20260508230059 35 290 3.2 4.8 0.00 0.00 0.00 12 1004.2
20260508225046 35 315 4.8 4.8 0.00 0.00 0.00 12 1004.4
20260508224024 35 283 4.8 4.8 0.00 0.00 0.00 13 1004.4
20260508223046 35 286 4.8 4.8 0.00 0.00 0.00 13 1004.5
20260508222057 36 286 3.2 4.8 0.00 0.00 0.00 13 1004.6
20260508221033 35 341 4.8 4.8 0.00 0.00 0.00 13 1004.9
20260508220048 35 260 4.8 4.8 0.00 0.00 0.00 13 1005.1
20260508215044 35 258 4.8 4.8 0.00 0.00 0.00 13 1005.2
20260508214028 35 270 4.8 4.8 0.00 0.00 0.00 13 1005.4
20260508213034 35 301 3.2 4.8 0.00 0.00 0.00 14 1005.5
20260508212051 35 230 4.8 4.8 0.00 0.00 0.00 13 1005.6
20260508211041 35 282 3.2 4.8 0.00 0.00 0.00 14 1005.7
20260508210021 35 1 3.2 3.2 0.00 0.00 0.00 14 1005.9
20260508205025 35 303 4.8 4.8 0.00 0.00 0.00 14 1006.0
20260508204052 35 271 4.8 4.8 0.00 0.00 0.00 14 1006.3
20260508203030 35 343 4.8 4.8 0.00 0.00 0.00 14 1006.4
20260508202028 35 329 4.8 4.8 0.00 0.00 0.00 15 1006.5
20260508201028 35 291 4.8 4.8 0.00 0.00 0.00 15 1006.6
20260508200024 35 311 4.8 4.8 0.00 0.00 0.00 15 1006.8
20260508195022 35 267 4.8 4.8 0.00 0.00 0.00 15 1006.8
20260508194020 34 294 4.8 4.8 0.00 0.00 0.00 16 1007.0
20260508193041 34 327 4.8 4.8 0.00 0.00 0.00 16 1007.0
20260508192046 33 303 4.8 4.8 0.00 0.00 0.00 16 1007.1
20260508191030 33 301 4.8 4.8 0.00 0.00 0.00 16 1007.2
20260508190019 33 282 3.2 3.2 0.00 0.00 0.00 17 1007.5
20260508185020 32 24 3.2 3.2 0.00 0.00 0.00 18 1007.5
20260508184037 32 290 3.2 3.2 0.00 0.00 0.00 18
20260508183044 32 301 1.6 3.2 0.00 0.00 0.00 18
20260508182026 31 168 3.2 3.2 0.00 0.00 0.00 18 1008.0
20260508181022 31 247 1.6 1.6 0.00 0.00 0.00 19 1008.1
20260508180028 31 202 1.6 1.6 0.00 0.00 0.00 19 1008.3
20260508175033 31 262 1.6 1.6 0.00 0.00 0.00 20 1008.4
20260508174040 30 322 1.6 1.6 0.00 0.00 0.00 20 1008.4
20260508173025 30 208 1.6 1.6 0.00 0.00 0.00 20 1008.5
20260508172041 30 214 1.6 1.6 0.00 0.00 0.00 20 1008.6
20260508171045 30 340 1.6 1.6 0.00 0.00 0.00 21 1008.8
20260508170032 29 256 1.6 1.6 0.00 0.00 0.00 22 1008.8
20260508165030 29 183 1.6 1.6 0.00 0.00 0.00 22 1008.9
20260508164027 28 301 1.6 1.6 0.00 0.00 0.00 23 1008.9
20260508163026 28 216 1.6 1.6 0.00 0.00 0.00 23 1008.9
20260508162043 27 320 1.6 1.6 0.00 0.00 0.00 23 1009.0
20260508161041 27 233 1.6 1.6 0.00 0.00 0.00 24 1009.0
20260508160023 26 222 1.6 1.6 0.00 0.00 0.00 25 1009.0
20260508155101 26 231 1.6 1.6 0.00 0.00 0.00 26 1009.1
20260508154046 26 151 1.6 1.6 0.00 0.00 0.00 27 1009.1
20260508153019 25 193 1.6 1.6 0.00 0.00 0.00 27 1009.2
20260508152025 25 217 1.6 1.6 0.00 0.00 0.00 28 1009.1
20260508151053 24 141 1.6 1.6 0.00 0.00 0.00 29 1009.1
20260508150057 23 195 1.6 1.6 0.00 0.00 0.00 30 1009.2
20260508145209 23 200 1.6 1.6 0.00 0.00 0.00 31 1009.2
20260508144054 22 184 1.6 1.6 0.00 0.00 0.00 32 1009.2
20260508143022 22 143 1.6 1.6 0.00 0.00 0.00 33 1009.1
20260508142028 21 201 0.0 1.6 0.00 0.00 0.00 34 1009.1
20260508141033 21 164 0.0 1.6 0.00 0.00 0.00 35 1009.0
20260508140026 20 0.0 0.0 0.00 0.00 0.00 38 1009.0
20260508135037 20 0.0 0.0 0.00 0.00 0.00 40 1009.0
20260508134019 19 0.0 0.0 0.00 0.00 0.00 41 1009.0
20260508133045 18 0.0 0.0 0.00 0.00 0.00 42 1008.9
20260508132033 18 0.0 0.0 0.00 0.00 0.00 42 1008.9